ATLAS CENTAUR 2 R/B, 694

Orbit data source: Space-Track

ATLAS CENTAUR 2 R/B, 694 is space debris in LEO originally from a launch on Wed, 27 Nov 1963 UTC via an ATLAS CENTAUR launch vehicle from the Air Force Eastern Test Range (AFETR). Debris objects in space refer to the collection of defunct objects orbiting the Earth. Examples of debris include non-operational satellites, rocket bodies, and fragments generated from explosions, collisions, or faulty payload assembly.

Not visible in the next 10 days
Identifier
694, 1963-047A
Orbit
LEO
Country
Flag of USUS
Related business
Manufacturer
GD/Convair
Mission
Spacecraft
Bus & Motor
AC R&D, Unknown motor
Mass
4,300 kg wet, 900 kg dry
Launch date (UTC)
1963-11-27 (62 years ago)
Launch vehicle
ATLAS CENTAUR
Launch site
Air Force Eastern Test Range (AFETR)
Object type
Payload
Rocket body
Debris
Shape & HBR
Unknown
Radar Cross Section
Large (>1 m²)

Expand to show TLE details & history
Last TLE update: 9 hours ago

TLE from 9 hours ago
0 ATLAS CENTAUR 2 R/B
1   694U 63047A   25312.70913032  .00005568  00000-0  67714-3 0  9999
2   694  30.3502 151.4968 0550115  94.4783 271.8838 14.11424142114513
Epoch: 2025-11-08T17:01Z
TLE epoch observation values (Epoch: 2025-11-08T17:01:08.859Z)
Latitude
-0.00003°
Longitude
-151.92502°
Altitude
861.808 km
Speed
7.419 km/s
True Right ascension
10h 05m 59s
True Declination
0° 00' 00"
Sunlit
Object was in daylight at epoch
Visualization orbit readout
Latitude
Unknown
Longitude
Unknown
Altitude
Unknown
Speed
Unknown
Apparent Right ascension
Unknown
Apparent Declination
Unknown
Sunlit
N/A
Visualization observer readout
Local Sidereal Time
21:51:10
Azimuth
Unknown
Elevation
Unknown
Doppler factor
Unknown
Orbital elements
Apogee altitude
1,256.369 km
Perigee altitude
460.196 km
Semi-major axis
7,236.42 km
Eccentricity
0.05501
Inclination
30.3502°
RAAN
151.4968°
Arg. of periapsis
94.4783°
True anomaly
265.58181°
Mean anomaly
271.8838°
Eccentric anomaly
268.73264°
Mean motion
3.5258 °/min
Orbital period
102.1 mins
BSTAR
0.00067714
Loading maneuver chart data...
Computing Atmospheric mass density...

Documentation

Showing up to 5 results
|